Regional Weather Roundup
Issued by NWS

Home | Current Version | Previous Version | Graphics & Text | Print | Product List | Glossary On
Versions: 1 2 3 4 5 6 7 8 9 10 11 12 13 14 15 16 17 18 19 20 21 22 23 24 25 26 27 28 29 30 31 32 33 34 35 36 37 38 39 40 41 42 43 44 45 46 47 48 49 50
447
ASUS45 KTFX 171810
RWRMT
MONTANA REGIONAL WEATHER ROUNDUP
NATIONAL WEATHER SERVICE GREAT FALLS MT
1200 PM MDT TUE OCT 17 2017

NOTE: "FAIR" INDICATES FEW OR NO CLOUDS BELOW 12000 FEET WITH NO
SIGNIFICANT WEATHER AND/OR OBSTRUCTIONS TO VISIBILITY.

MTZ001>007-043-171900-
WEST OF THE DIVIDE

CITY           SKY/WX    TMP DP  RH WIND       PRES   REMARKS
KALISPELL      SUNNY     63  33  32 S16       29.83F
MISSOULA       SUNNY     50  33  52 CALM      29.96F
BUTTE          CLOUDY    60  21  22 E8        30.07F
MULLAN PASS    MOSUNNY   47  24  40 SW15G30   29.98F
$$

MTZ008-052>055-171900-
SOUTHWEST MONTANA

CITY           SKY/WX    TMP DP  RH WIND       PRES   REMARKS
BOZEMAN        SUNNY     57  34  41 CALM      30.04F
DILLON         SUNNY     59  21  23 SW7       30.10F
W YELLOWSTONE  SUNNY     52  16  24 SW22G31   30.24F
ENNIS          CLOUDY    63  18  17 S23G31    30.14F
$$

MTZ009-010-012-014-046-048-049-054-171900-
EAST SLOPES AND CENTRAL MONTANA

CITY           SKY/WX    TMP DP  RH WIND       PRES   REMARKS
CUT BANK       SUNNY     66  20  17 SW36G46   29.71F
GREAT FALLS    CLOUDY    69  19  15 SW30G43   29.83F
MALMSTROM AFB  SUNNY     69  20  16 SW30G45   29.82F
HELENA         SUNNY     58  29  33 W5        29.94F
$$

MTZ011-013-016-021-045-047-050-051-171900-
NORTH CENTRAL MONTANA

CITY           SKY/WX    TMP DP  RH WIND       PRES   REMARKS
HAVRE          SUNNY     71  24  17 SW33G43   29.71F
LEWISTOWN      SUNNY     69  20  15 SW23G32   29.90F
N BAR RANCH      N/A     70  16  12 W15G24    29.91F
$$

MTZ017>020-022>027-061-062-171900-
NORTHEAST MONTANA

CITY           SKY/WX    TMP DP  RH WIND       PRES   REMARKS
GLASGOW        SUNNY     72  23  16 W22       29.75F
JORDAN           N/A     73  22  14 W20G26    29.82F
SIDNEY         SUNNY     67  35  30 S17       29.81F
WOLF POINT     SUNNY     72  27  18 SW14      29.77F
MALTA          SUNNY     73  23  15 W18G26    29.72F
$$

MTZ028>42-056>058-171900-
SOUTHCENTRAL AND SOUTHEAST MONTANA

CITY           SKY/WX    TMP DP  RH WIND       PRES   REMARKS
BAKER          SUNNY     70  26  19 W17       29.93F
BILLINGS       MOSUNNY   68  24  19 SW15      29.95F
LIVINGSTON     SUNNY     65  22  19 SW29G43   29.98F
MILES CITY     SUNNY     70  28  21 SW14      29.90F
$$

REGIONAL REPORTS...DAKOTAS

CITY           SKY/WX    TMP DP  RH WIND       PRES   REMARKS
WILLISTON      SUNNY     69  35  28 SW15      29.79F
MINOT          SUNNY     72  30  21 SW17      29.76F
BEACH            N/A     66  23  19 W17G24    29.91F
CROSBY           N/A     66  30  26 SW22      29.73F
TIOGA            N/A     66  28  24 W18G26    29.79F
WATFORD CITY     N/A     72  28  20 W13G24    29.80F
BISMARCK       SUNNY     73  31  21 W14       29.87F
GRAND FORKS    MOSUNNY   72  38  29 SW15G25   29.80F
FARGO          CLOUDY    67  42  40 S13       29.87F
BUFFALO SD       N/A     74  22  14 W20       29.91F
RAPID CITY     SUNNY     73  33  23 SE10      30.00F
$$

REGIONAL REPORTS...WYOMING/IDAHO/WASHINGTON

CITY           SKY/WX    TMP DP  RH WIND       PRES   REMARKS
GILLETTE       SUNNY     68  23  18 S7        30.04F
SHERIDAN       SUNNY     74  18  12 VRB3      30.00F
BUFFALO WY     SUNNY     69  13  11 SE9       30.06F
CODY           SUNNY     67  16  14 SW9       30.09F
IDAHO FALLS    SUNNY     49  29  46 N3        30.25F
SALMON         CLOUDY    43  29  57 CALM      30.17F
BOISE          PTSUNNY   53  31  42 N7        30.18S
SPOKANE        MOSUNNY   59  32  36 S20G31    29.87F
$$

REGIONAL REPORTS...ALBERTA

CITY           SKY/WX    TMP DP  RH WIND       PRES   REMARKS
EDMONTON       CLOUDY    59  39  47 SW13      29.17F
CALGARY        PTSUNNY   68  32  26 S26G35    29.30F
LETHBRIDGE     MOSUNNY   70  28  21 SW26G35   29.56F
MEDICINE HAT   MOSUNNY   70  28  21 SW36G47   29.49F
$$

REGIONAL REPORTS...SASKATCHEWAN

CITY           SKY/WX    TMP DP  RH WIND       PRES   REMARKS
SWIFT CURRENT  SUNNY     68  28  22 SW26G35   29.55F
REGINA         PTSUNNY   66  32  28 SW17G25   29.60F
SASKATOON      PTSUNNY   61  36  39 S17       29.47F
$$




USA.gov is the U.S. government's official web portal to all federal, state and local government web resources and services.